Weather History for PAGS - February, 2014

Change the Weather History Date:

Thursday, February 6, 2014

  Actual Average Record
Temperature  
Mean Temperature 18 °F -  
Max Temperature 30 °F 36 °F 45 °F (1978)
Min Temperature 6 °F 24 °F -13 °F (1951)
Degree Days  
Heating Degree Days 47    
Moisture  
Dew Point 11 °F    
Average Humidity 82    
Maximum Humidity 93    
Minimum Humidity 55    
Precipitation  
Precipitation 0.00 in - - ()
Sea Level Pressure  
Sea Level Pressure 30.20 in    
Wind  
Wind Speed 2 mph (NNW)    
Max Wind Speed 5 mph    
Max Gust Speed -    
Visibility 10 miles    
Events      
Averages and records for this station are not official NWS values.
T = Trace of Precipitation, MM = Missing Value Source: NWS Daily Summary

Daily Weather History Graph

Daily Weather History Graph

Search for Another Location

Airport or City:

Trip Planner

Search our weather history database for the weather conditions in past years. The results will help you decide how hot, cold, wet, or windy it might be!

Date:

Astronomy

Feb. 06, 2014 Rise Set
Actual Time 7:56 AM AKST 4:37 PM AKST
Civil Twilight 7:13 AM AKST 5:21 PM AKST
Nautical Twilight 6:25 AM AKST 6:08 PM AKST
Astronomical Twilight 5:39 AM AKST 6:55 PM AKST
Moon 10:08 AM AKST (2/6) 1:22 AM AKST (2/6)
Length of Visible Light 10h 07m
Length of Day
8h 41m
Waxing Crescent, 51% of the Moon is Illuminated
Feb 6
Waxing Crescent
Feb 14
Full
Feb 22
Last Quarter
Feb 28
New
Mar 8
First Quarter

Hourly Weather History & Observations

Time (AKST) Temp. Windchill Dew Point Humidity Pressure Visibility Wind Dir Wind Speed Gust Speed Precip Events Conditions
12:16 AM 10.4 °F 2.2 °F 6.8 °F 85% 30.49 in 10.0 mi North 4.6 mph - N/A   Clear
12:36 AM 10.4 °F - 6.8 °F 85% 30.49 in 10.0 mi Calm Calm - N/A   Clear
12:56 AM 10.4 °F 4.0 °F 8.6 °F 92% 30.48 in 10.0 mi North 3.5 mph - N/A   Clear
1:16 AM 10.4 °F 4.0 °F 6.8 °F 85% 30.48 in 10.0 mi North 3.5 mph - N/A   Clear
1:36 AM 8.6 °F - 6.8 °F 92% 30.47 in 10.0 mi Calm Calm - N/A   Clear
1:56 AM 10.4 °F 4.0 °F 6.8 °F 85% 30.47 in 10.0 mi North 3.5 mph - N/A   Clear
2:16 AM 10.4 °F 2.2 °F 6.8 °F 85% 30.46 in 10.0 mi NNW 4.6 mph - N/A   Clear
2:36 AM 8.6 °F - 3.2 °F 79% 30.46 in 10.0 mi Calm Calm - N/A   Clear
2:56 AM 10.4 °F - 8.6 °F 92% 30.45 in 10.0 mi Calm Calm - N/A   Clear
3:16 AM 8.6 °F 0.1 °F 6.8 °F 92% 30.44 in 10.0 mi NNW 4.6 mph - N/A   Clear
3:36 AM 8.6 °F 2.0 °F 3.2 °F 79% 30.44 in 10.0 mi North 3.5 mph - N/A   Clear
3:56 AM 8.6 °F 2.0 °F 6.8 °F 92% 30.43 in 10.0 mi North 3.5 mph - N/A   Clear
4:16 AM 8.6 °F 0.1 °F 6.8 °F 92% 30.42 in 10.0 mi North 4.6 mph - N/A   Clear
4:36 AM 8.6 °F 2.0 °F 5.0 °F 85% 30.42 in 10.0 mi North 3.5 mph - N/A   Clear
4:56 AM 8.6 °F 0.1 °F 5.0 °F 85% 30.41 in 10.0 mi NNW 4.6 mph - N/A   Clear
5:16 AM 8.6 °F 2.0 °F 6.8 °F 92% 30.40 in 10.0 mi NNW 3.5 mph - N/A   Clear
5:36 AM 8.6 °F 2.0 °F 6.8 °F 92% 30.39 in 10.0 mi NNW 3.5 mph - N/A   Clear
5:56 AM 6.8 °F -0.1 °F 3.2 °F 85% 30.39 in 10.0 mi NNW 3.5 mph - N/A   Clear
6:16 AM 6.8 °F - 3.2 °F 85% 30.37 in 10.0 mi Calm Calm - N/A   Clear
6:36 AM 8.6 °F 2.0 °F 3.2 °F 79% 30.37 in 10.0 mi NNW 3.5 mph - N/A   Clear
6:56 AM 6.8 °F - 3.2 °F 85% 30.36 in 10.0 mi Calm Calm - N/A   Clear
7:16 AM 6.8 °F - 3.2 °F 85% 30.36 in 10.0 mi Calm Calm - N/A   Clear
7:36 AM 6.8 °F - 3.2 °F 85% 30.35 in 10.0 mi Calm Calm - N/A   Clear
7:56 AM 6.8 °F - 1.4 °F 79% 30.35 in 10.0 mi Calm Calm - N/A   Clear
8:16 AM 6.8 °F -0.1 °F 3.2 °F 85% 30.34 in 10.0 mi NNW 3.5 mph - N/A   Clear
8:36 AM 8.6 °F - 6.8 °F 92% 30.33 in 10.0 mi Calm Calm - N/A   Clear
9:16 AM 10.4 °F 2.2 °F 8.6 °F 92% 30.31 in 10.0 mi NNW 4.6 mph - N/A   Clear
9:36 AM 12.2 °F 4.3 °F 8.6 °F 85% 30.30 in 10.0 mi NNW 4.6 mph - N/A   Clear
9:56 AM 15.8 °F - 12.2 °F 86% 30.30 in 10.0 mi Calm Calm - N/A   Clear
10:16 AM 17.6 °F 12.3 °F 14.0 °F 86% 30.29 in 10.0 mi North 3.5 mph - N/A   Clear
10:36 AM 19.4 °F - 15.8 °F 86% 30.27 in 10.0 mi Calm Calm - N/A   Clear
10:56 AM 23.0 °F - 17.6 °F 80% 30.26 in 10.0 mi Calm Calm - N/A   Clear
11:16 AM 26.6 °F - 19.4 °F 74% 30.25 in 10.0 mi Calm Calm - N/A   Clear
11:36 AM 28.4 °F - 19.4 °F 69% 30.24 in 10.0 mi Calm Calm - N/A   Clear
11:56 AM 28.4 °F - 17.6 °F 64% 30.23 in 10.0 mi Calm Calm - N/A   Clear
12:16 PM 28.4 °F - 17.6 °F 64% 30.22 in 10.0 mi Calm Calm - N/A   Clear
12:36 PM 28.4 °F - 17.6 °F 64% 30.20 in 10.0 mi Calm Calm - N/A   Clear
1:36 PM 30.2 °F - 15.8 °F 55% 30.16 in 10.0 mi Calm Calm - N/A   Clear
1:56 PM 30.2 °F - 15.8 °F 55% 30.14 in 10.0 mi Calm Calm - N/A   Clear
2:16 PM 30.2 °F 26.7 °F 15.8 °F 55% 30.13 in 10.0 mi WSW 3.5 mph - N/A   Clear
2:36 PM 30.2 °F - 17.6 °F 60% 30.11 in 10.0 mi Calm Calm - N/A   Clear
2:56 PM 30.2 °F - 17.6 °F 60% 30.10 in 10.0 mi Calm Calm - N/A   Clear
3:36 PM 28.4 °F - 17.6 °F 64% 30.07 in 10.0 mi Calm Calm - N/A   Clear
3:56 PM 28.4 °F - 19.4 °F 69% 30.06 in 10.0 mi Calm Calm - N/A   Clear
4:16 PM 28.4 °F - 19.4 °F 69% 30.04 in 10.0 mi Calm Calm - N/A   Clear
4:36 PM 24.8 °F - 17.6 °F 74% 30.04 in 10.0 mi Calm Calm - N/A   Clear
4:56 PM 24.8 °F - 17.6 °F 74% 30.02 in 10.0 mi Calm Calm - N/A   Clear
5:16 PM 23.0 °F - 17.6 °F 80% 30.01 in 10.0 mi Calm Calm - N/A   Clear
5:36 PM 21.2 °F - 17.6 °F 86% 30.00 in 10.0 mi Calm Calm - N/A   Clear
5:56 PM 19.4 °F - 15.8 °F 86% 29.99 in 10.0 mi Calm Calm - N/A   Clear
6:36 PM 17.6 °F - 15.8 °F 93% 29.97 in 10.0 mi Calm Calm - N/A   Clear
6:56 PM 17.6 °F 12.3 °F 14.0 °F 86% 29.96 in 10.0 mi NNW 3.5 mph - N/A   Clear
7:16 PM 15.8 °F - 12.2 °F 86% 29.96 in 10.0 mi Calm Calm - N/A   Clear
7:36 PM 15.8 °F - 12.2 °F 86% 29.95 in 10.0 mi Calm Calm - N/A   Clear
7:56 PM 15.8 °F - 12.2 °F 86% 29.94 in 10.0 mi Calm Calm - N/A   Clear
8:16 PM 14.0 °F - 10.4 °F 86% 29.94 in 10.0 mi Calm Calm - N/A   Clear
8:36 PM 14.0 °F 6.5 °F 12.2 °F 93% 29.93 in 10.0 mi NNW 4.6 mph - N/A   Clear
8:56 PM 12.2 °F 4.3 °F 10.4 °F 92% 29.93 in 10.0 mi NNW 4.6 mph - N/A   Clear
9:36 PM 12.2 °F - 10.4 °F 92% 29.92 in 10.0 mi Calm Calm - N/A   Clear
9:56 PM 12.2 °F 6.1 °F 10.4 °F 92% 29.91 in 10.0 mi North 3.5 mph - N/A   Clear
10:16 PM 12.2 °F 6.1 °F 8.6 °F 85% 29.91 in 10.0 mi North 3.5 mph - N/A   Clear
10:36 PM 10.4 °F - 6.8 °F 85% 29.90 in 10.0 mi Calm Calm - N/A   Clear
10:56 PM 10.4 °F 4.0 °F 6.8 °F 85% 29.90 in 10.0 mi North 3.5 mph - N/A   Clear
11:16 PM 10.4 °F 4.0 °F 8.6 °F 92% 29.90 in 10.0 mi NNW 3.5 mph - N/A   Clear
11:36 PM 10.4 °F - 8.6 °F 92% 29.90 in 10.0 mi Calm Calm - N/A   Clear
11:56 PM 10.4 °F 4.0 °F 6.8 °F 85% 29.90 in 10.0 mi NNW 3.5 mph - N/A   Clear